Time,TemperatureF,DewpointF,PressureIn,WindDirection,WindDirectionDegrees,WindSpeedMPH,WindSpeedGustMPH,Humidity,HourlyPrecipIn,Conditions,Clouds,dailyrainin,SoftwareType,DateUTC
2013-03-18 00:00:00,33.3,28.7,29.98,ENE,71,5.0,-999.0,83,0.00,,,0.00,Wunderground v.1.15,2013-03-18 05:00:00,
2013-03-18 00:10:00,33.2,28.9,29.98,NE,48,5.0,-999.0,84,0.00,,,0.00,Wunderground v.1.15,2013-03-18 05:10:00,
2013-03-18 00:15:00,33.1,28.8,29.97,ESE,107,5.0,-999.0,84,0.00,,,0.00,Wunderground v.1.15,2013-03-18 05:15:00,
2013-03-18 00:20:00,33.0,28.7,29.97,SE,132,5.0,-999.0,84,0.00,,,0.00,Wunderground v.1.15,2013-03-18 05:20:00,
2013-03-18 00:25:00,32.9,28.9,29.97,ESE,119,5.0,-999.0,85,0.00,,,0.00,Wunderground v.1.15,2013-03-18 05:25:00,
2013-03-18 00:30:00,32.8,29.1,29.96,ESE,103,5.0,-999.0,86,0.00,,,0.00,Wunderground v.1.15,2013-03-18 05:30:00,
2013-03-18 00:40:00,32.5,29.1,29.95,ESE,119,5.0,-999.0,87,0.00,,,0.00,Wunderground v.1.15,2013-03-18 05:40:00,
2013-03-18 00:45:00,32.4,29.2,29.95,East,92,6.0,-999.0,88,0.00,,,0.00,Wunderground v.1.15,2013-03-18 05:45:00,
2013-03-18 00:50:00,32.3,29.1,29.94,SE,136,6.0,-999.0,88,0.00,,,0.00,Wunderground v.1.15,2013-03-18 05:50:00,
2013-03-18 00:55:00,32.3,29.4,29.93,ESE,119,5.0,-999.0,89,0.00,,,0.00,Wunderground v.1.15,2013-03-18 05:55:00,
2013-03-18 01:00:00,32.2,29.3,29.93,ESE,117,4.0,-999.0,89,0.00,,,0.00,Wunderground v.1.15,2013-03-18 06:00:00,
2013-03-18 01:05:00,32.1,29.2,29.93,SE,134,5.0,-999.0,89,0.00,,,0.00,Wunderground v.1.15,2013-03-18 06:05:00,
2013-03-18 01:14:00,32.0,29.4,29.92,East,96,5.0,-999.0,90,0.00,,,0.00,Wunderground v.1.15,2013-03-18 06:14:00,
2013-03-18 01:19:00,31.9,29.3,29.92,ESE,114,5.0,-999.0,90,0.00,,,0.00,Wunderground v.1.15,2013-03-18 06:19:00,
2013-03-18 01:24:00,31.8,29.5,29.92,East,96,5.0,-999.0,91,0.00,,,0.00,Wunderground v.1.15,2013-03-18 06:24:00,
2013-03-18 01:29:00,31.7,29.4,29.92,SE,146,5.0,-999.0,91,0.00,,,0.00,Wunderground v.1.15,2013-03-18 06:29:00,
2013-03-18 01:35:00,31.7,29.4,29.92,ESE,103,4.0,-999.0,91,0.00,,,0.00,Wunderground v.1.15,2013-03-18 06:35:00,
2013-03-18 01:45:00,31.7,29.4,29.92,ESE,117,5.0,-999.0,91,0.00,,,0.00,Wunderground v.1.15,2013-03-18 06:45:00,
2013-03-18 01:50:00,31.7,29.4,29.91,SE,126,5.0,-999.0,91,0.00,,,0.00,Wunderground v.1.15,2013-03-18 06:50:00,
2013-03-18 01:55:00,31.7,29.6,29.91,East,96,5.0,-999.0,92,0.00,,,0.00,Wunderground v.1.15,2013-03-18 06:55:00,
2013-03-18 02:00:00,31.7,29.4,29.90,East,82,6.0,-999.0,91,0.00,,,0.00,Wunderground v.1.15,2013-03-18 07:00:00,
2013-03-18 02:05:00,31.7,29.4,29.90,ESE,107,7.0,-999.0,91,0.00,,,0.00,Wunderground v.1.15,2013-03-18 07:05:00,
2013-03-18 02:15:00,31.7,29.4,29.89,East,96,5.0,-999.0,91,0.00,,,0.00,Wunderground v.1.15,2013-03-18 07:15:00,
2013-03-18 02:20:00,31.7,29.6,29.88,SE,141,5.0,-999.0,92,0.00,,,0.00,Wunderground v.1.15,2013-03-18 07:20:00,
2013-03-18 02:24:00,31.7,29.6,29.88,East,86,4.0,-999.0,92,0.00,,,0.00,Wunderground v.1.15,2013-03-18 07:24:00,
2013-03-18 02:29:00,31.7,29.6,29.87,ENE,72,5.0,-999.0,92,0.00,,,0.00,Wunderground v.1.15,2013-03-18 07:29:00,
2013-03-18 02:34:00,31.7,29.6,29.87,ESE,121,5.0,-999.0,92,0.00,,,0.00,Wunderground v.1.15,2013-03-18 07:34:00,
2013-03-18 02:39:00,31.7,29.6,29.87,ENE,78,5.0,-999.0,92,0.00,,,0.00,Wunderground v.1.15,2013-03-18 07:39:00,
2013-03-18 02:45:00,31.7,29.6,29.86,ESE,121,5.0,-999.0,92,0.00,,,0.00,Wunderground v.1.15,2013-03-18 07:45:00,
2013-03-18 02:50:00,31.7,29.6,29.86,East,97,6.0,-999.0,92,0.00,,,0.00,Wunderground v.1.15,2013-03-18 07:50:00,
2013-03-18 02:55:00,31.6,29.5,29.86,ESE,103,7.0,-999.0,92,0.00,,,0.00,Wunderground v.1.15,2013-03-18 07:55:00,
2013-03-18 03:00:00,31.6,29.5,29.86,ESE,117,6.0,-999.0,92,0.00,,,0.00,Wunderground v.1.15,2013-03-18 08:00:00,
2013-03-18 03:05:00,31.6,29.5,29.85,SE,126,6.0,-999.0,92,0.00,,,0.00,Wunderground v.1.15,2013-03-18 08:05:00,
2013-03-18 03:10:00,31.6,29.5,29.85,East,97,6.0,-999.0,92,0.00,,,0.00,Wunderground v.1.15,2013-03-18 08:10:00,
2013-03-18 03:20:00,31.6,29.5,29.84,East,101,6.0,-999.0,92,0.00,,,0.00,Wunderground v.1.15,2013-03-18 08:20:00,
2013-03-18 03:25:00,31.6,29.5,29.84,SE,142,5.0,-999.0,92,0.00,,,0.00,Wunderground v.1.15,2013-03-18 08:25:00,
2013-03-18 03:30:00,31.5,29.4,29.83,ESE,119,5.0,-999.0,92,0.00,,,0.00,Wunderground v.1.15,2013-03-18 08:30:00,
2013-03-18 03:35:00,31.5,29.4,29.83,ENE,65,5.0,-999.0,92,0.00,,,0.00,Wunderground v.1.15,2013-03-18 08:35:00,
2013-03-18 03:40:00,31.5,29.4,29.82,ENE,62,5.0,-999.0,92,0.00,,,0.00,Wunderground v.1.15,2013-03-18 08:40:00,
2013-03-18 03:50:00,31.5,29.4,29.82,SE,137,3.0,-999.0,92,0.00,,,0.00,Wunderground v.1.15,2013-03-18 08:50:00,
2013-03-18 03:54:00,31.5,29.4,29.82,East,94,4.0,-999.0,92,0.00,,,0.00,Wunderground v.1.15,2013-03-18 08:54:00,
2013-03-18 03:59:00,31.5,29.4,29.82,East,84,4.0,-999.0,92,0.00,,,0.00,Wunderground v.1.15,2013-03-18 08:59:00,
2013-03-18 04:04:00,31.5,29.4,29.82,NE,52,4.0,-999.0,92,0.00,,,0.00,Wunderground v.1.15,2013-03-18 09:04:00,
2013-03-18 04:09:00,31.4,29.3,29.82,ENE,75,3.0,-999.0,92,0.00,,,0.00,Wunderground v.1.15,2013-03-18 09:09:00,
2013-03-18 04:14:00,31.4,29.3,29.82,East,84,3.0,-999.0,92,0.00,,,0.00,Wunderground v.1.15,2013-03-18 09:14:00,
2013-03-18 04:20:00,31.4,29.6,29.82,SSE,148,4.0,-999.0,93,0.00,,,0.00,Wunderground v.1.15,2013-03-18 09:20:00,
2013-03-18 04:25:00,31.4,29.6,29.82,SE,129,3.0,-999.0,93,0.00,,,0.00,Wunderground v.1.15,2013-03-18 09:25:00,
2013-03-18 04:30:00,31.4,29.6,29.82,ENE,75,2.0,-999.0,93,0.00,,,0.00,Wunderground v.1.15,2013-03-18 09:30:00,
2013-03-18 04:35:00,31.3,29.5,29.82,ESE,106,3.0,-999.0,93,0.00,,,0.00,Wunderground v.1.15,2013-03-18 09:35:00,
2013-03-18 04:40:00,31.3,29.5,29.82,East,83,3.0,-999.0,93,0.00,,,0.00,Wunderground v.1.15,2013-03-18 09:40:00,
2013-03-18 04:45:00,31.3,29.5,29.82,East,101,4.0,-999.0,93,0.00,,,0.00,Wunderground v.1.15,2013-03-18 09:45:00,
2013-03-18 04:55:00,31.3,29.5,29.82,East,87,3.0,-999.0,93,0.00,,,0.00,Wunderground v.1.15,2013-03-18 09:55:00,
2013-03-18 05:00:00,31.3,29.8,29.81,East,82,3.0,-999.0,94,0.00,,,0.00,Wunderground v.1.15,2013-03-18 10:00:00,
2013-03-18 05:05:00,31.4,29.9,29.81,ENE,65,2.0,-999.0,94,0.00,,,0.00,Wunderground v.1.15,2013-03-18 10:05:00,
2013-03-18 05:10:00,31.4,29.9,29.81,East,88,3.0,-999.0,94,0.00,,,0.00,Wunderground v.1.15,2013-03-18 10:10:00,
2013-03-18 05:15:00,31.4,29.9,29.80,ENE,60,2.0,-999.0,94,0.00,,,0.00,Wunderground v.1.15,2013-03-18 10:15:00,
2013-03-18 05:25:00,31.3,29.8,29.79,SE,140,2.0,-999.0,94,0.00,,,0.00,Wunderground v.1.15,2013-03-18 10:25:00,
2013-03-18 05:30:00,31.2,29.7,29.79,East,80,3.0,-999.0,94,0.00,,,0.00,Wunderground v.1.15,2013-03-18 10:30:00,
2013-03-18 05:34:00,31.1,29.6,29.79,NE,56,3.0,-999.0,94,0.00,,,0.00,Wunderground v.1.15,2013-03-18 10:34:00,
2013-03-18 05:39:00,31.1,29.6,29.80,East,95,2.0,-999.0,94,0.00,,,0.00,Wunderground v.1.15,2013-03-18 10:39:00,
2013-03-18 05:44:00,31.1,29.6,29.80,ESE,117,2.0,-999.0,94,0.00,,,0.00,Wunderground v.1.15,2013-03-18 10:44:00,
2013-03-18 05:49:00,31.0,29.5,29.80,SE,124,3.0,-999.0,94,0.00,,,0.00,Wunderground v.1.15,2013-03-18 10:49:00,
2013-03-18 05:55:00,31.0,29.7,29.80,ESE,123,3.0,-999.0,95,0.00,,,0.00,Wunderground v.1.15,2013-03-18 10:55:00,
2013-03-18 06:00:00,30.9,29.6,29.80,ENE,61,2.0,-999.0,95,0.00,,,0.00,Wunderground v.1.15,2013-03-18 11:00:00,
2013-03-18 06:05:00,31.0,29.7,29.80,ESE,103,2.0,-999.0,95,0.00,,,0.00,Wunderground v.1.15,2013-03-18 11:05:00,
2013-03-18 06:10:00,30.9,29.6,29.80,East,94,3.0,-999.0,95,0.00,,,0.00,Wunderground v.1.15,2013-03-18 11:10:00,
2013-03-18 06:15:00,30.9,29.6,29.80,SE,143,2.0,-999.0,95,0.00,,,0.00,Wunderground v.1.15,2013-03-18 11:15:00,
2013-03-18 06:20:00,31.0,29.7,29.79,ESE,111,1.0,-999.0,95,0.00,,,0.00,Wunderground v.1.15,2013-03-18 11:20:00,
2013-03-18 06:30:00,31.0,29.7,29.78,East,86,3.0,-999.0,95,0.00,,,0.00,Wunderground v.1.15,2013-03-18 11:30:00,
2013-03-18 06:35:00,31.0,29.7,29.78,East,95,3.0,-999.0,95,0.00,,,0.00,Wunderground v.1.15,2013-03-18 11:35:00,
2013-03-18 06:40:00,31.0,29.7,29.76,SSE,163,3.0,-999.0,95,0.00,,,0.00,Wunderground v.1.15,2013-03-18 11:40:00,
2013-03-18 06:45:00,31.0,29.7,29.77,ESE,107,3.0,-999.0,95,0.00,,,0.00,Wunderground v.1.15,2013-03-18 11:45:00,
2013-03-18 06:50:00,30.9,29.6,29.77,ESE,112,3.0,-999.0,95,0.00,,,0.00,Wunderground v.1.15,2013-03-18 11:50:00,
2013-03-18 07:00:00,30.9,29.6,29.77,ENE,70,2.0,-999.0,95,0.00,,,0.00,Wunderground v.1.15,2013-03-18 12:00:00,
2013-03-18 07:10:00,30.9,29.6,29.77,NE,46,1.0,-999.0,95,0.00,,,0.00,Wunderground v.1.15,2013-03-18 12:10:00,
2013-03-18 07:15:00,30.9,29.6,29.76,SE,133,2.0,-999.0,95,0.00,,,0.00,Wunderground v.1.15,2013-03-18 12:15:00,
2013-03-18 07:20:00,30.9,29.6,29.76,East,79,3.0,-999.0,95,0.00,,,0.00,Wunderground v.1.15,2013-03-18 12:20:00,
2013-03-18 07:25:00,30.9,29.6,29.77,East,100,4.0,-999.0,95,0.00,,,0.00,Wunderground v.1.15,2013-03-18 12:25:00,
2013-03-18 07:35:00,31.0,29.7,29.78,East,100,0.0,-999.0,95,0.00,,,0.00,Wunderground v.1.15,2013-03-18 12:35:00,
2013-03-18 07:40:00,31.0,29.7,29.78,East,100,0.0,-999.0,95,0.00,,,0.00,Wunderground v.1.15,2013-03-18 12:40:00,
2013-03-18 07:45:00,31.0,29.7,29.79,East,100,0.0,-999.0,95,0.00,,,0.00,Wunderground v.1.15,2013-03-18 12:45:00,
2013-03-18 07:50:00,31.0,29.7,29.78,East,98,1.0,-999.0,95,0.00,,,0.00,Wunderground v.1.15,2013-03-18 12:50:00,
2013-03-18 07:55:00,31.1,29.8,29.78,ESE,109,1.0,-999.0,95,0.00,,,0.00,Wunderground v.1.15,2013-03-18 12:55:00,
2013-03-18 08:04:00,31.1,29.8,29.77,ESE,110,0.0,-999.0,95,0.00,,,0.00,Wunderground v.1.15,2013-03-18 13:04:00,
2013-03-18 08:09:00,31.2,30.2,29.76,ESE,110,0.0,-999.0,96,0.00,,,0.00,Wunderground v.1.15,2013-03-18 13:09:00,
2013-03-18 08:14:00,31.3,30.3,29.77,ESE,109,0.0,-999.0,96,0.00,,,0.00,Wunderground v.1.15,2013-03-18 13:14:00,
2013-03-18 08:19:00,31.4,30.4,29.76,ESE,109,1.0,-999.0,96,0.00,,,0.00,Wunderground v.1.15,2013-03-18 13:19:00,
2013-03-18 08:24:00,31.3,30.3,29.77,East,89,1.0,-999.0,96,0.00,,,0.00,Wunderground v.1.15,2013-03-18 13:24:00,
2013-03-18 08:29:00,31.3,30.3,29.76,East,89,2.0,-999.0,96,0.00,,,0.00,Wunderground v.1.15,2013-03-18 13:29:00,
2013-03-18 08:35:00,31.4,30.4,29.75,East,84,1.0,-999.0,96,0.00,,,0.00,Wunderground v.1.15,2013-03-18 13:35:00,
2013-03-18 08:40:00,31.4,30.4,29.75,East,90,1.0,-999.0,96,0.00,,,0.00,Wunderground v.1.15,2013-03-18 13:40:00,
2013-03-18 08:45:00,31.3,30.3,29.76,East,82,2.0,-999.0,96,0.00,,,0.00,Wunderground v.1.15,2013-03-18 13:45:00,
2013-03-18 08:50:00,31.3,30.3,29.76,East,92,1.0,-999.0,96,0.00,,,0.00,Wunderground v.1.15,2013-03-18 13:50:00,
2013-03-18 08:55:00,31.3,30.3,29.76,East,82,1.0,-999.0,96,0.00,,,0.00,Wunderground v.1.15,2013-03-18 13:55:00,
2013-03-18 09:00:00,31.2,30.2,29.76,East,82,1.0,-999.0,96,0.00,,,0.00,Wunderground v.1.15,2013-03-18 14:00:00,
2013-03-18 09:10:00,31.3,30.3,29.76,East,82,1.0,-999.0,96,0.00,,,0.00,Wunderground v.1.15,2013-03-18 14:10:00,
2013-03-18 09:15:00,31.3,30.3,29.75,East,82,0.0,-999.0,96,0.00,,,0.00,Wunderground v.1.15,2013-03-18 14:15:00,
2013-03-18 09:19:00,31.4,30.4,29.75,East,82,0.0,-999.0,96,0.00,,,0.00,Wunderground v.1.15,2013-03-18 14:19:00,
2013-03-18 09:24:00,31.4,30.4,29.75,ESE,108,1.0,-999.0,96,0.00,,,0.00,Wunderground v.1.15,2013-03-18 14:24:00,
2013-03-18 09:29:00,31.4,30.4,29.75,ESE,108,1.0,-999.0,96,0.00,,,0.00,Wunderground v.1.15,2013-03-18 14:29:00,
2013-03-18 09:35:00,31.5,30.5,29.76,ESE,108,0.0,-999.0,96,0.00,,,0.00,Wunderground v.1.15,2013-03-18 14:35:00,
2013-03-18 09:40:00,31.4,30.4,29.75,East,100,1.0,-999.0,96,0.00,,,0.01,Wunderground v.1.15,2013-03-18 14:40:00,
2013-03-18 09:45:00,31.4,30.4,29.74,East,100,1.0,-999.0,96,0.00,,,0.01,Wunderground v.1.15,2013-03-18 14:45:00,
2013-03-18 09:50:00,31.5,30.5,29.75,East,100,1.0,-999.0,96,0.00,,,0.01,Wunderground v.1.15,2013-03-18 14:50:00,
2013-03-18 09:55:00,31.5,30.5,29.76,East,100,0.0,-999.0,96,0.00,,,0.01,Wunderground v.1.15,2013-03-18 14:55:00,
2013-03-18 10:00:00,31.5,30.5,29.76,East,100,0.0,-999.0,96,0.00,,,0.01,Wunderground v.1.15,2013-03-18 15:00:00,
2013-03-18 10:10:00,31.6,30.6,29.75,East,100,1.0,-999.0,96,0.00,,,0.01,Wunderground v.1.15,2013-03-18 15:10:00,
2013-03-18 10:15:00,31.6,30.6,29.75,East,100,1.0,-999.0,96,0.00,,,0.02,Wunderground v.1.15,2013-03-18 15:15:00,
2013-03-18 10:20:00,31.6,30.6,29.75,East,100,0.0,-999.0,96,0.00,,,0.02,Wunderground v.1.15,2013-03-18 15:20:00,
2013-03-18 10:25:00,31.7,30.7,29.75,East,100,0.0,-999.0,96,0.00,,,0.02,Wunderground v.1.15,2013-03-18 15:25:00,
2013-03-18 10:30:00,31.8,30.8,29.75,East,100,0.0,-999.0,96,0.04,,,0.02,Wunderground v.1.15,2013-03-18 15:30:00,
2013-03-18 10:35:00,31.9,30.9,29.75,East,100,0.0,-999.0,96,0.04,,,0.03,Wunderground v.1.15,2013-03-18 15:35:00,
2013-03-18 10:45:00,32.0,31.2,29.75,ESE,105,0.0,-999.0,97,0.04,,,0.03,Wunderground v.1.15,2013-03-18 15:45:00,
2013-03-18 10:50:00,32.1,31.3,29.75,ESE,105,0.0,-999.0,97,0.00,,,0.04,Wunderground v.1.15,2013-03-18 15:50:00,
2013-03-18 10:55:00,32.1,31.3,29.76,ESE,105,0.0,-999.0,97,0.00,,,0.04,Wunderground v.1.15,2013-03-18 15:55:00,
2013-03-18 11:00:00,32.2,31.2,29.76,ESE,105,0.0,-999.0,96,0.00,,,0.04,Wunderground v.1.15,2013-03-18 16:00:00,
2013-03-18 11:05:00,32.2,31.2,29.76,ESE,105,0.0,-999.0,96,0.00,,,0.04,Wunderground v.1.15,2013-03-18 16:05:00,
2013-03-18 11:14:00,32.3,31.3,29.77,ENE,67,1.0,-999.0,96,0.00,,,0.04,Wunderground v.1.15,2013-03-18 16:14:00,
2013-03-18 11:19:00,32.2,31.2,29.77,ENE,67,1.0,-999.0,96,0.00,,,0.04,Wunderground v.1.15,2013-03-18 16:19:00,
2013-03-18 11:24:00,32.3,31.3,29.76,ENE,67,0.0,-999.0,96,0.00,,,0.04,Wunderground v.1.15,2013-03-18 16:24:00,
2013-03-18 11:30:00,32.2,31.2,29.76,ENE,67,1.0,-999.0,96,0.00,,,0.04,Wunderground v.1.15,2013-03-18 16:30:00,
2013-03-18 11:40:00,32.4,31.6,29.75,ENE,67,0.0,-999.0,97,0.00,,,0.04,Wunderground v.1.15,2013-03-18 16:40:00,
2013-03-18 11:45:00,32.7,31.9,29.76,ENE,67,0.0,-999.0,97,0.00,,,0.04,Wunderground v.1.15,2013-03-18 16:45:00,
2013-03-18 11:50:00,32.9,32.1,29.76,ENE,67,0.0,-999.0,97,0.00,,,0.04,Wunderground v.1.15,2013-03-18 16:50:00,
2013-03-18 11:55:00,33.0,32.2,29.76,NNW,340,1.0,-999.0,97,0.00,,,0.04,Wunderground v.1.15,2013-03-18 16:55:00,
2013-03-18 12:00:00,32.9,31.9,29.76,NNW,339,1.0,-999.0,96,0.00,,,0.04,Wunderground v.1.15,2013-03-18 17:00:00,
2013-03-18 12:05:00,33.0,32.2,29.76,NNW,339,1.0,-999.0,97,0.00,,,0.04,Wunderground v.1.15,2013-03-18 17:05:00,
2013-03-18 12:10:00,33.0,32.2,29.76,NW,320,2.0,-999.0,97,0.00,,,0.04,Wunderground v.1.15,2013-03-18 17:10:00,
2013-03-18 12:20:00,33.3,32.5,29.74,NNW,327,2.0,-999.0,97,0.00,,,0.04,Wunderground v.1.15,2013-03-18 17:20:00,
2013-03-18 12:25:00,33.4,32.6,29.74,NW,326,2.0,-999.0,97,0.00,,,0.04,Wunderground v.1.15,2013-03-18 17:25:00,
2013-03-18 12:30:00,33.6,32.8,29.74,West,273,2.0,-999.0,97,0.00,,,0.05,Wunderground v.1.15,2013-03-18 17:30:00,
2013-03-18 12:35:00,34.0,33.2,29.74,West,275,2.0,-999.0,97,0.00,,,0.05,Wunderground v.1.15,2013-03-18 17:35:00,
2013-03-18 12:40:00,34.2,33.4,29.74,WNW,288,2.0,-999.0,97,0.00,,,0.05,Wunderground v.1.15,2013-03-18 17:40:00,
2013-03-18 12:50:00,34.1,33.3,29.74,WNW,302,3.0,-999.0,97,0.00,,,0.05,Wunderground v.1.15,2013-03-18 17:50:00,
2013-03-18 12:55:00,34.2,33.4,29.74,NW,313,4.0,-999.0,97,0.00,,,0.05,Wunderground v.1.15,2013-03-18 17:55:00,
2013-03-18 13:00:00,34.1,33.1,29.75,WNW,294,3.0,-999.0,96,0.00,,,0.05,Wunderground v.1.15,2013-03-18 18:00:00,
2013-03-18 13:05:00,34.1,33.1,29.74,WNW,288,3.0,-999.0,96,0.00,,,0.05,Wunderground v.1.15,2013-03-18 18:05:00,
2013-03-18 13:10:00,34.2,33.2,29.74,WNW,293,3.0,-999.0,96,0.00,,,0.05,Wunderground v.1.15,2013-03-18 18:10:00,
2013-03-18 13:15:00,34.2,33.2,29.74,West,264,4.0,-999.0,96,0.00,,,0.05,Wunderground v.1.15,2013-03-18 18:15:00,
2013-03-18 13:25:00,34.5,33.5,29.75,West,277,5.0,-999.0,96,0.00,,,0.05,Wunderground v.1.15,2013-03-18 18:25:00,
2013-03-18 13:30:00,34.8,33.8,29.76,WNW,289,5.0,-999.0,96,0.00,,,0.05,Wunderground v.1.15,2013-03-18 18:30:00,
2013-03-18 13:35:00,34.9,33.9,29.76,WNW,295,4.0,-999.0,96,0.00,,,0.05,Wunderground v.1.15,2013-03-18 18:35:00,
2013-03-18 13:40:00,34.9,33.9,29.76,WNW,298,5.0,-999.0,96,0.00,,,0.05,Wunderground v.1.15,2013-03-18 18:40:00,
2013-03-18 13:45:00,35.3,34.3,29.76,West,267,5.0,-999.0,96,0.00,,,0.05,Wunderground v.1.15,2013-03-18 18:45:00,
2013-03-18 13:54:00,35.5,34.5,29.76,West,278,6.0,-999.0,96,0.00,,,0.05,Wunderground v.1.15,2013-03-18 18:54:00,
2013-03-18 13:59:00,35.7,34.4,29.76,West,279,5.0,-999.0,95,0.00,,,0.05,Wunderground v.1.15,2013-03-18 18:59:00,
2013-03-18 14:04:00,35.9,34.6,29.76,WNW,284,5.0,-999.0,95,0.00,,,0.05,Wunderground v.1.15,2013-03-18 19:04:00,
2013-03-18 14:09:00,36.1,34.8,29.76,West,271,5.0,-999.0,95,0.00,,,0.05,Wunderground v.1.15,2013-03-18 19:09:00,
2013-03-18 14:14:00,36.2,34.9,29.75,West,274,6.0,-999.0,95,0.00,,,0.05,Wunderground v.1.15,2013-03-18 19:14:00,
2013-03-18 14:19:00,36.3,35.0,29.75,West,275,6.0,-999.0,95,0.00,,,0.05,Wunderground v.1.15,2013-03-18 19:19:00,
2013-03-18 14:25:00,36.5,35.2,29.75,West,271,6.0,-999.0,95,0.00,,,0.05,Wunderground v.1.15,2013-03-18 19:25:00,
2013-03-18 14:30:00,37.0,35.7,29.75,West,267,6.0,-999.0,95,0.00,,,0.05,Wunderground v.1.15,2013-03-18 19:30:00,
2013-03-18 14:35:00,37.5,36.2,29.75,West,281,5.0,-999.0,95,0.00,,,0.05,Wunderground v.1.15,2013-03-18 19:35:00,
2013-03-18 14:40:00,37.5,35.9,29.74,West,277,6.0,-999.0,94,0.00,,,0.05,Wunderground v.1.15,2013-03-18 19:40:00,
2013-03-18 14:45:00,37.6,36.0,29.75,West,276,7.0,-999.0,94,0.00,,,0.05,Wunderground v.1.15,2013-03-18 19:45:00,
2013-03-18 14:50:00,37.7,35.9,29.75,NW,319,7.0,-999.0,93,0.00,,,0.05,Wunderground v.1.15,2013-03-18 19:50:00,
2013-03-18 15:00:00,37.7,35.6,29.74,West,265,7.0,-999.0,92,0.00,,,0.05,Wunderground v.1.15,2013-03-18 20:00:00,
2013-03-18 15:05:00,37.8,35.7,29.75,West,273,6.0,-999.0,92,0.00,,,0.05,Wunderground v.1.15,2013-03-18 20:05:00,
2013-03-18 15:10:00,37.7,35.6,29.75,West,273,5.0,-999.0,92,0.00,,,0.05,Wunderground v.1.15,2013-03-18 20:10:00,
2013-03-18 15:15:00,37.6,35.5,29.75,WNW,293,6.0,-999.0,92,0.00,,,0.05,Wunderground v.1.15,2013-03-18 20:15:00,
2013-03-18 15:20:00,37.5,35.4,29.75,WNW,284,6.0,-999.0,92,0.00,,,0.05,Wunderground v.1.15,2013-03-18 20:20:00,
2013-03-18 15:30:00,37.9,35.5,29.75,West,271,7.0,-999.0,91,0.00,,,0.05,Wunderground v.1.15,2013-03-18 20:30:00,
2013-03-18 15:35:00,37.9,35.2,29.76,West,271,8.0,-999.0,90,0.00,,,0.05,Wunderground v.1.15,2013-03-18 20:35:00,
2013-03-18 15:40:00,37.9,35.2,29.76,West,281,8.0,-999.0,90,0.00,,,0.05,Wunderground v.1.15,2013-03-18 20:40:00,
2013-03-18 15:45:00,37.9,35.2,29.76,WSW,257,7.0,-999.0,90,0.00,,,0.05,Wunderground v.1.15,2013-03-18 20:45:00,
2013-03-18 15:50:00,37.7,35.0,29.76,West,269,7.0,-999.0,90,0.00,,,0.05,Wunderground v.1.15,2013-03-18 20:50:00,
2013-03-18 15:55:00,37.6,34.9,29.76,SW,225,8.0,-999.0,90,0.00,,,0.05,Wunderground v.1.15,2013-03-18 20:55:00,
2013-03-18 16:05:00,37.8,35.1,29.76,NW,326,8.0,-999.0,90,0.00,,,0.05,Wunderground v.1.15,2013-03-18 21:05:00,
2013-03-18 16:10:00,38.0,34.8,29.76,WNW,289,7.0,-999.0,88,0.00,,,0.05,Wunderground v.1.15,2013-03-18 21:10:00,
2013-03-18 16:15:00,38.0,35.0,29.76,WNW,288,7.0,-999.0,89,0.00,,,0.05,Wunderground v.1.15,2013-03-18 21:15:00,
2013-03-18 16:20:00,38.0,34.8,29.76,NW,310,7.0,-999.0,88,0.00,,,0.05,Wunderground v.1.15,2013-03-18 21:20:00,
2013-03-18 16:25:00,38.0,34.5,29.76,WNW,292,7.0,-999.0,87,0.00,,,0.05,Wunderground v.1.15,2013-03-18 21:25:00,
2013-03-18 16:35:00,38.2,34.4,29.76,WNW,285,7.0,-999.0,86,0.00,,,0.05,Wunderground v.1.15,2013-03-18 21:35:00,
2013-03-18 16:40:00,38.3,34.5,29.77,WNW,286,7.0,-999.0,86,0.00,,,0.05,Wunderground v.1.15,2013-03-18 21:40:00,
2013-03-18 16:45:00,38.3,34.5,29.77,WNW,295,6.0,-999.0,86,0.00,,,0.05,Wunderground v.1.15,2013-03-18 21:45:00,
2013-03-18 16:50:00,38.3,34.5,29.77,WNW,282,5.0,-999.0,86,0.00,,,0.05,Wunderground v.1.15,2013-03-18 21:50:00,
2013-03-18 16:55:00,38.2,34.4,29.77,NW,320,6.0,-999.0,86,0.00,,,0.05,Wunderground v.1.15,2013-03-18 21:55:00,
2013-03-18 17:00:00,38.3,34.2,29.77,West,264,7.0,-999.0,85,0.00,,,0.05,Wunderground v.1.15,2013-03-18 22:00:00,
2013-03-18 17:09:00,38.8,34.4,29.78,West,273,7.0,-999.0,84,0.00,,,0.05,Wunderground v.1.15,2013-03-18 22:09:00,
2013-03-18 17:14:00,39.0,34.0,29.78,WNW,290,7.0,-999.0,82,0.00,,,0.05,Wunderground v.1.15,2013-03-18 22:14:00,
2013-03-18 17:20:00,39.0,33.7,29.78,NNW,334,9.0,-999.0,81,0.00,,,0.05,Wunderground v.1.15,2013-03-18 22:20:00,
2013-03-18 17:25:00,39.1,33.8,29.78,NNW,335,8.0,-999.0,81,0.00,,,0.05,Wunderground v.1.15,2013-03-18 22:25:00,
2013-03-18 17:29:00,39.0,33.7,29.78,NW,319,7.0,-999.0,81,0.00,,,0.05,Wunderground v.1.15,2013-03-18 22:29:00,
2013-03-18 17:39:00,38.5,32.2,29.79,NNW,327,10.0,-999.0,78,0.00,,,0.05,Wunderground v.1.15,2013-03-18 22:39:00,
2013-03-18 17:44:00,38.4,32.5,29.79,WNW,286,8.0,-999.0,79,0.00,,,0.05,Wunderground v.1.15,2013-03-18 22:44:00,
2013-03-18 17:49:00,38.3,32.0,29.80,West,279,5.0,-999.0,78,0.00,,,0.05,Wunderground v.1.15,2013-03-18 22:49:00,
2013-03-18 17:54:00,38.2,31.6,29.80,North,355,6.0,-999.0,77,0.00,,,0.05,Wunderground v.1.15,2013-03-18 22:54:00,
2013-03-18 17:59:00,38.0,31.1,29.80,NW,319,8.0,-999.0,76,0.00,,,0.05,Wunderground v.1.15,2013-03-18 22:59:00,
2013-03-18 18:04:00,37.8,30.9,29.81,WNW,301,8.0,-999.0,76,0.00,,,0.05,Wunderground v.1.15,2013-03-18 23:04:00,
2013-03-18 18:10:00,37.0,29.5,29.81,WNW,292,10.0,-999.0,74,0.00,,,0.05,Wunderground v.1.15,2013-03-18 23:10:00,
2013-03-18 18:15:00,36.5,29.7,29.82,NW,306,10.0,-999.0,76,0.00,,,0.05,Wunderground v.1.15,2013-03-18 23:15:00,
2013-03-18 18:20:00,36.2,29.0,29.82,NW,304,8.0,-999.0,75,0.00,,,0.05,Wunderground v.1.15,2013-03-18 23:20:00,
2013-03-18 18:25:00,35.9,29.1,29.82,SW,221,8.0,-999.0,76,0.00,,,0.05,Wunderground v.1.15,2013-03-18 23:25:00,
2013-03-18 18:30:00,35.7,28.6,29.83,WNW,292,8.0,-999.0,75,0.00,,,0.05,Wunderground v.1.15,2013-03-18 23:30:00,
2013-03-18 18:35:00,35.4,28.3,29.83,NNW,331,9.0,-999.0,75,0.00,,,0.05,Wunderground v.1.15,2013-03-18 23:35:00,
2013-03-18 18:45:00,34.3,26.9,29.84,North,351,7.0,-999.0,74,0.00,,,0.05,Wunderground v.1.15,2013-03-18 23:45:00,
2013-03-18 18:50:00,33.5,26.1,29.85,NNW,344,9.0,-999.0,74,0.00,,,0.05,Wunderground v.1.15,2013-03-18 23:50:00,
2013-03-18 18:55:00,32.9,25.5,29.85,NW,318,9.0,-999.0,74,0.00,,,0.05,Wunderground v.1.15,2013-03-18 23:55:00,
2013-03-18 19:00:00,32.3,25.3,29.85,NW,310,9.0,-999.0,75,0.00,,,0.05,Wunderground v.1.15,2013-03-19 00:00:00,
2013-03-18 19:05:00,31.9,24.9,29.86,NW,306,9.0,-999.0,75,0.00,,,0.05,Wunderground v.1.15,2013-03-19 00:05:00,
2013-03-18 19:15:00,31.5,23.8,29.87,WSW,257,9.0,-999.0,73,0.00,,,0.05,Wunderground v.1.15,2013-03-19 00:15:00,
2013-03-18 19:20:00,31.2,23.9,29.87,WNW,299,9.0,-999.0,74,0.00,,,0.05,Wunderground v.1.15,2013-03-19 00:20:00,
2013-03-18 19:25:00,31.0,24.0,29.87,West,276,7.0,-999.0,75,0.00,,,0.05,Wunderground v.1.15,2013-03-19 00:25:00,
2013-03-18 19:30:00,30.9,23.9,29.88,WNW,298,8.0,-999.0,75,0.00,,,0.05,Wunderground v.1.15,2013-03-19 00:30:00,
2013-03-18 19:35:00,30.7,23.7,29.89,NW,325,10.0,-999.0,75,0.00,,,0.05,Wunderground v.1.15,2013-03-19 00:35:00,
2013-03-18 19:40:00,30.5,23.5,29.89,WNW,292,8.0,-999.0,75,0.00,,,0.05,Wunderground v.1.15,2013-03-19 00:40:00,
2013-03-18 19:50:00,29.7,23.1,29.89,WNW,286,7.0,-999.0,76,0.00,,,0.05,Wunderground v.1.15,2013-03-19 00:50:00,
2013-03-18 19:55:00,29.4,22.5,29.90,NNW,329,7.0,-999.0,75,0.00,,,0.05,Wunderground v.1.15,2013-03-19 00:55:00,
2013-03-18 20:00:00,29.3,22.4,29.90,NW,318,8.0,-999.0,75,0.00,,,0.05,Wunderground v.1.15,2013-03-19 01:00:00,
2013-03-18 20:05:00,29.1,22.2,29.90,West,265,7.0,-999.0,75,0.00,,,0.05,Wunderground v.1.15,2013-03-19 01:05:00,
2013-03-18 20:10:00,29.0,21.7,29.90,WNW,290,8.0,-999.0,74,0.00,,,0.05,Wunderground v.1.15,2013-03-19 01:10:00,
2013-03-18 20:19:00,28.8,21.6,29.90,NNW,327,9.0,-999.0,74,0.00,,,0.05,Wunderground v.1.15,2013-03-19 01:19:00,
2013-03-18 20:24:00,28.7,21.5,29.91,West,272,9.0,-999.0,74,0.00,,,0.05,Wunderground v.1.15,2013-03-19 01:24:00,
2013-03-18 20:29:00,28.6,21.4,29.91,WNW,294,8.0,-999.0,74,0.00,,,0.05,Wunderground v.1.15,2013-03-19 01:29:00,
2013-03-18 20:34:00,28.4,21.2,29.92,NW,311,6.0,-999.0,74,0.00,,,0.05,Wunderground v.1.15,2013-03-19 01:34:00,
2013-03-18 20:39:00,28.1,20.9,29.92,NNE,17,8.0,-999.0,74,0.00,,,0.05,Wunderground v.1.15,2013-03-19 01:39:00,
2013-03-18 20:44:00,27.9,20.7,29.92,West,269,10.0,-999.0,74,0.00,,,0.05,Wunderground v.1.15,2013-03-19 01:44:00,
2013-03-18 20:54:00,27.5,20.0,29.93,NNW,342,11.0,-999.0,73,0.00,,,0.05,Wunderground v.1.15,2013-03-19 01:54:00,
2013-03-18 20:59:00,27.3,19.5,29.93,WNW,288,10.0,-999.0,72,0.00,,,0.05,Wunderground v.1.15,2013-03-19 01:59:00,
2013-03-18 21:04:00,27.0,18.8,29.93,NNW,329,10.0,-999.0,71,0.00,,,0.05,Wunderground v.1.15,2013-03-19 02:04:00,
2013-03-18 21:09:00,26.8,18.7,29.93,West,275,10.0,-999.0,71,0.00,,,0.05,Wunderground v.1.15,2013-03-19 02:09:00,
2013-03-18 21:14:00,26.6,18.5,29.94,WNW,288,9.0,-999.0,71,0.00,,,0.05,Wunderground v.1.15,2013-03-19 02:14:00,
2013-03-18 21:20:00,26.5,18.4,29.94,NW,308,10.0,-999.0,71,0.00,,,0.05,Wunderground v.1.15,2013-03-19 02:20:00,
2013-03-18 21:25:00,26.4,18.3,29.95,North,351,9.0,-999.0,71,0.00,,,0.05,Wunderground v.1.15,2013-03-19 02:25:00,
2013-03-18 21:30:00,26.3,18.2,29.95,WNW,290,9.0,-999.0,71,0.00,,,0.05,Wunderground v.1.15,2013-03-19 02:30:00,
2013-03-18 21:35:00,26.2,18.1,29.95,West,269,9.0,-999.0,71,0.00,,,0.05,Wunderground v.1.15,2013-03-19 02:35:00,
2013-03-18 21:40:00,26.2,18.4,29.95,NW,307,8.0,-999.0,72,0.00,,,0.05,Wunderground v.1.15,2013-03-19 02:40:00,
2013-03-18 21:45:00,26.2,18.4,29.96,WSW,257,9.0,-999.0,72,0.00,,,0.05,Wunderground v.1.15,2013-03-19 02:45:00,
2013-03-18 21:55:00,26.2,17.7,29.97,NW,305,9.0,-999.0,70,0.00,,,0.05,Wunderground v.1.15,2013-03-19 02:55:00,
2013-03-18 22:00:00,26.1,18.0,29.97,WNW,293,9.0,-999.0,71,0.00,,,0.05,Wunderground v.1.15,2013-03-19 03:00:00,
2013-03-18 22:05:00,26.1,18.0,29.97,West,271,7.0,-999.0,71,0.00,,,0.05,Wunderground v.1.15,2013-03-19 03:05:00,
2013-03-18 22:10:00,25.9,17.8,29.97,WNW,303,7.0,-999.0,71,0.00,,,0.05,Wunderground v.1.15,2013-03-19 03:10:00,
2013-03-18 22:15:00,25.7,17.3,29.97,WNW,285,8.0,-999.0,70,0.00,,,0.05,Wunderground v.1.15,2013-03-19 03:15:00,
2013-03-18 22:20:00,25.5,17.1,29.97,WNW,287,10.0,-999.0,70,0.00,,,0.05,Wunderground v.1.15,2013-03-19 03:20:00,
2013-03-18 22:30:00,25.3,17.2,29.97,WNW,288,9.0,-999.0,71,0.00,,,0.05,Wunderground v.1.15,2013-03-19 03:30:00,
2013-03-18 22:35:00,25.3,17.2,29.98,WNW,286,7.0,-999.0,71,0.00,,,0.05,Wunderground v.1.15,2013-03-19 03:35:00,
2013-03-18 22:40:00,25.3,17.5,29.98,WNW,289,6.0,-999.0,72,0.00,,,0.05,Wunderground v.1.15,2013-03-19 03:40:00,
2013-03-18 22:45:00,25.3,17.2,29.97,NW,309,6.0,-999.0,71,0.00,,,0.05,Wunderground v.1.15,2013-03-19 03:45:00,
2013-03-18 22:50:00,25.3,16.9,29.98,NW,318,9.0,-999.0,70,0.00,,,0.05,Wunderground v.1.15,2013-03-19 03:50:00,
2013-03-18 22:59:00,25.3,16.2,29.98,WNW,294,9.0,-999.0,68,0.00,,,0.05,Wunderground v.1.15,2013-03-19 03:59:00,
2013-03-18 23:04:00,25.3,16.2,29.99,WNW,292,11.0,-999.0,68,0.00,,,0.05,Wunderground v.1.15,2013-03-19 04:04:00,
2013-03-18 23:09:00,25.3,15.9,29.99,NW,319,11.0,-999.0,67,0.00,,,0.05,Wunderground v.1.15,2013-03-19 04:09:00,
2013-03-18 23:14:00,25.3,16.2,29.98,WNW,303,11.0,-999.0,68,0.00,,,0.05,Wunderground v.1.15,2013-03-19 04:14:00,
2013-03-18 23:19:00,25.3,16.2,29.98,NW,323,9.0,-999.0,68,0.00,,,0.05,Wunderground v.1.15,2013-03-19 04:19:00,
2013-03-18 23:24:00,25.3,16.2,29.99,SW,215,8.0,-999.0,68,0.00,,,0.05,Wunderground v.1.15,2013-03-19 04:24:00,
2013-03-18 23:30:00,25.4,16.6,29.99,WSW,250,7.0,-999.0,69,0.00,,,0.05,Wunderground v.1.15,2013-03-19 04:30:00,
2013-03-18 23:35:00,25.4,16.6,29.99,WNW,288,6.0,-999.0,69,0.00,,,0.05,Wunderground v.1.15,2013-03-19 04:35:00,
2013-03-18 23:40:00,25.4,16.6,29.99,West,277,7.0,-999.0,69,0.00,,,0.05,Wunderground v.1.15,2013-03-19 04:40:00,
2013-03-18 23:45:00,25.4,17.0,29.99,West,279,7.0,-999.0,70,0.00,,,0.05,Wunderground v.1.15,2013-03-19 04:45:00,
2013-03-18 23:50:00,25.4,17.0,29.99,NW,305,5.0,-999.0,70,0.00,,,0.05,Wunderground v.1.15,2013-03-19 04:50:00,
2013-03-18 23:55:00,25.4,17.0,29.99,NW,320,4.0,-999.0,70,0.00,,,0.05,Wunderground v.1.15,2013-03-19 04:55:00,